Wind_Speed
57 57 57 58 59 59 60 60 57 55 54 53 52 53 54 55 55 54 52 51 51 51 50 49 48 48 48 48 46 42 40 39 39 39 38 37 37 36 35 33 31 31 31 31 32 30 28 28 28 29 31 33 36 39 42 46 48 48 49 52 56 60 62 63 63 63 64 65 68 70 73 75 77 78 74 65 58 54 53 53 53 53 55 56 58
58 57 57 57 56 57 60 59 55 54 55 54 54 55 56 57 55 54 52 51 51 50 49 48 47 46 46 45 41 38 37 38 38 37 36 35 35 35 33 32 31 31 31 31 31 30 29 29 30 31 33 34 37 40 44 47 49 50 52 53 57 61 63 65 65 64 65 67 69 71 73 75 78 79 74 65 58 54 52 52 53 55 56 58 60
58 58 58 56 55 56 59 58 53 52 54 55 56 56 57 56 54 53 51 50 49 48 47 46 45 44 43 40 37 35 36 36 35 34 33 34 34 34 33 31 31 31 31 32 32 31 31 32 32 33 34 35 38 42 45 48 51 52 53 55 58 62 65 67 68 67 66 68 70 72 73 75 78 79 75 67 60 56 54 54 55 57 58 59 60
58 58 58 57 56 56 58 57 51 49 50 53 55 55 54 53 51 50 48 47 46 45 44 43 42 41 38 36 34 34 35 34 32 32 32 33 34 33 32 31 31 31 32 33 32 31 32 33 34 34 35 35 39 42 45 49 52 53 55 57 59 63 66 69 71 69 67 68 71 72 74 76 78 80 78 71 64 60 57 57 58 59 59 60 60
57 57 57 57 56 56 57 55 50 47 47 49 51 51 50 49 48 46 45 44 43 42 41 41 39 37 34 33 33 33 32 31 30 30 31 32 33 32 31 31 30 31 32 32 32 31 33 34 35 35 35 36 40 42 46 50 53 53 55 58 62 65 67 70 72 70 68 69 71 73 75 77 79 81 80 76 70 65 62 61 60 60 60 60 61
56 57 57 56 56 56 56 52 48 47 46 46 46 47 46 46 45 43 42 41 39 39 39 38 36 33 32 32 32 30 29 28 29 30 31 32 31 31 30 30 30 30 31 31 32 32 34 35 35 35 35 37 40 43 46 51 53 54 55 58 62 66 68 71 72 71 69 69 71 73 76 78 80 81 81 79 75 69 65 63 62 62 62 61 61
57 57 57 56 56 55 52 49 47 47 45 44 44 44 43 43 42 40 39 38 37 37 37 35 33 31 31 31 29 27 27 27 28 29 31 31 31 30 29 29 29 30 30 31 32 33 34 36 36 36 36 38 40 44 48 52 54 54 55 58 62 65 68 71 72 71 70 70 72 74 77 80 81 82 82 81 78 74 68 65 64 64 65 64 64
58 58 58 57 55 52 49 47 46 45 44 43 42 43 42 41 40 38 37 37 36 36 35 33 31 30 30 28 26 26 26 27 28 30 31 31 31 30 29 29 29 30 31 32 33 34 36 37 37 37 36 38 41 45 49 52 54 54 55 59 64 66 69 71 72 71 70 70 72 75 78 81 83 83 83 82 81 77 73 69 66 66 67 68 68
61 60 59 57 53 50 47 46 45 44 44 42 42 42 41 39 38 37 37 37 36 35 33 31 30 30 29 27 25 26 27 27 29 30 31 31 31 30 29 29 30 31 32 33 34 35 37 39 38 36 35 38 42 46 49 51 52 53 56 61 65 67 70 72 72 72 71 71 73 76 79 82 84 84 84 84 83 80 76 73 70 68 68 69 71
64 63 60 56 53 50 46 45 44 44 44 42 41 41 39 38 38 37 37 36 35 34 32 31 30 29 28 26 26 26 27 28 30 31 31 32 31 29 28 29 31 33 34 35 36 37 37 37 36 34 35 40 45 47 49 50 51 53 57 62 66 68 70 72 73 72 71 71 73 76 80 82 84 85 85 84 84 82 79 75 73 71 70 70 71
66 64 60 57 54 50 46 45 45 45 44 42 41 40 38 37 38 37 36 35 34 34 32 31 30 29 28 28 27 26 27 28 30 32 32 32 31 29 28 31 34 36 36 37 37 38 37 35 33 34 38 43 47 48 49 50 51 53 58 63 66 68 71 72 73 73 72 72 74 77 80 83 85 86 86 84 84 83 80 77 75 73 72 70 70
67 64 61 59 55 49 46 46 46 45 43 41 40 39 38 38 37 35 34 35 35 34 33 31 30 30 29 28 28 27 27 29 31 33 33 32 31 30 31 33 35 37 37 38 38 38 36 34 34 38 42 46 48 48 49 50 52 55 59 63 66 68 70 72 74 73 72 73 75 78 81 83 86 87 87 85 85 83 81 78 75 74 73 70 69
67 65 62 59 54 50 48 48 47 45 42 40 40 39 37 38 37 34 34 35 36 35 32 30 30 30 30 30 28 27 28 29 31 33 33 31 31 32 33 34 35 36 37 38 37 37 37 37 38 41 45 47 49 49 50 51 53 56 60 64 67 68 70 73 74 73 72 73 75 78 81 84 86 89 88 87 86 84 81 78 76 75 73 68 67
68 66 63 60 54 50 50 49 47 45 42 40 39 39 38 38 36 34 35 37 37 35 32 30 30 30 31 31 29 29 29 30 31 33 33 32 32 34 35 35 35 35 36 37 38 40 42 42 43 45 47 50 51 51 52 52 54 57 62 65 67 68 70 74 74 73 73 73 75 78 82 84 87 89 89 88 87 85 82 78 75 75 71 66 64
69 67 64 59 54 51 50 49 47 44 42 40 40 39 39 38 36 34 36 38 37 35 31 29 30 31 31 31 31 31 31 31 32 33 32 33 34 35 35 35 36 36 37 39 41 43 45 46 47 49 51 53 53 54 54 53 55 59 63 65 65 67 71 74 74 73 73 73 75 79 82 84 87 90 90 89 87 85 82 78 75 74 69 63 63
70 68 64 59 54 52 51 49 46 43 42 41 41 40 40 39 37 36 37 38 37 35 32 31 30 31 32 33 33 35 35 34 32 32 32 34 35 35 34 34 37 39 40 41 42 44 46 49 50 52 53 55 55 55 54 54 56 60 63 63 64 68 73 74 74 74 73 73 75 79 83 85 88 91 92 90 88 85 81 77 75 71 65 61 63
71 69 65 60 56 55 53 49 45 43 43 43 42 41 41 40 38 37 38 38 37 36 35 33 31 31 32 35 36 38 38 36 33 32 33 35 35 36 36 37 39 41 43 44 45 48 50 51 52 53 54 55 54 54 53 54 57 61 62 62 65 70 73 74 74 74 73 73 76 80 83 86 88 91 93 91 88 85 80 76 73 68 62 60 63
72 69 66 62 59 57 54 50 46 45 45 44 43 42 42 41 39 38 38 38 38 38 37 35 33 32 34 37 38 39 39 37 36 34 33 34 36 37 39 40 41 42 44 45 47 49 50 51 52 53 53 53 53 53 53 55 58 60 60 62 66 71 73 74 74 73 72 73 76 80 84 86 88 91 93 91 88 84 79 75 71 64 60 60 62
72 70 67 64 61 58 54 50 47 47 47 45 44 44 43 41 40 38 38 39 40 39 38 36 35 35 36 37 38 39 40 40 40 38 35 35 37 38 39 40 41 44 46 47 47 48 49 50 51 51 51 51 51 52 53 56 58 59 60 63 67 71 73 74 74 73 72 74 77 81 85 86 87 91 93 92 89 84 78 73 68 62 59 60 62
73 71 69 65 61 57 53 50 49 49 48 45 45 45 44 42 40 40 40 41 41 41 39 38 37 37 37 38 39 41 42 43 42 41 39 39 39 40 41 41 43 46 47 47 47 48 50 50 50 49 49 49 49 51 54 56 57 59 62 65 68 72 73 73 73 73 73 75 78 82 86 87 87 90 93 92 88 83 78 72 66 61 59 61 63
72 72 69 65 61 57 54 52 51 51 49 46 46 46 44 42 42 43 43 43 43 43 42 40 39 39 40 40 41 43 45 44 43 41 40 41 42 43 43 44 45 47 45 45 46 48 49 49 48 47 47 47 49 52 54 56 58 61 63 66 69 72 73 73 73 73 73 76 79 83 87 87 87 90 93 92 88 83 77 70 64 60 60 61 63
70 71 69 65 62 59 56 54 54 52 49 47 46 46 45 45 46 46 45 45 45 45 44 42 41 42 43 43 43 45 47 46 43 42 41 41 42 43 44 45 46 45 43 43 45 47 48 47 45 45 46 48 51 54 56 58 61 63 64 67 70 72 72 73 73 73 74 77 80 84 87 88 88 91 93 92 87 82 76 69 63 60 60 61 63
66 68 68 66 63 61 58 56 55 53 50 48 48 49 49 48 48 48 47 46 46 45 44 43 42 44 46 46 46 48 49 47 45 44 44 43 43 44 45 47 47 46 44 44 44 45 47 46 46 47 49 50 53 56 57 59 61 62 65 69 72 72 72 72 72 72 74 77 81 85 87 88 89 91 93 91 87 80 74 68 62 60 60 62 63
63 64 66 66 64 62 60 58 56 54 52 51 51 52 52 51 50 49 48 47 47 45 43 43 43 45 47 49 49 49 49 47 45 45 46 45 46 47 46 46 48 47 46 45 45 45 46 46 48 50 51 52 54 55 56 59 61 64 67 70 71 71 71 72 72 73 75 79 83 85 87 88 89 91 93 91 86 79 73 67 62 61 61 62 63
62 62 63 65 65 63 62 60 58 55 55 55 54 54 54 52 50 49 48 48 47 45 43 43 43 43 44 45 46 47 46 43 41 42 44 45 47 47 46 48 50 49 46 46 48 48 48 48 50 50 50 52 53 54 56 59 62 65 67 68 69 70 71 71 72 74 77 81 84 86 87 88 90 92 93 91 85 78 72 66 63 61 61 62 63
62 61 61 63 65 65 64 62 59 58 57 57 57 56 55 53 51 50 50 49 47 45 43 42 41 42 41 38 38 40 41 38 37 39 43 46 46 44 45 50 52 49 48 50 51 50 49 50 50 50 50 51 52 54 56 59 61 64 66 68 69 70 70 70 72 75 79 82 85 86 86 87 90 93 94 91 85 78 71 66 64 62 62 62 64
64 62 62 62 65 66 65 63 61 60 60 59 58 57 55 53 51 51 52 50 48 45 43 41 41 42 41 38 35 34 37 40 42 45 49 49 45 43 46 51 53 51 51 52 52 50 50 50 51 51 52 52 53 55 57 59 62 65 67 68 69 69 70 71 74 78 81 83 85 85 86 87 90 93 94 91 84 77 71 67 64 62 62 62 64
67 65 64 64 65 66 66 64 63 62 61 60 59 57 54 53 53 53 53 51 48 46 44 43 41 41 42 43 40 36 39 45 48 51 51 48 45 46 50 53 52 51 52 53 52 50 50 53 55 56 56 55 55 56 58 61 64 67 68 68 69 70 72 74 77 80 82 83 84 85 85 88 91 94 94 90 84 77 71 67 65 63 62 63 64
70 68 66 65 64 64 65 65 64 62 61 60 59 57 56 55 54 54 53 52 49 48 47 45 43 42 43 45 45 44 46 49 49 49 47 44 43 45 48 49 51 53 54 55 54 52 53 57 58 59 58 58 58 59 61 64 66 68 68 69 69 71 73 76 79 81 82 83 84 84 85 89 92 94 94 90 83 76 71 67 64 63 62 63 64
72 70 68 66 64 63 64 65 65 63 62 62 60 59 58 57 55 54 54 53 51 50 49 47 45 44 44 44 46 48 49 48 46 45 44 43 44 46 47 50 53 57 58 59 58 58 61 62 60 60 60 60 60 63 65 66 67 68 68 69 70 72 75 78 80 82 83 83 83 83 86 90 93 95 94 90 83 76 71 67 65 63 63 63 63
73 72 70 68 66 64 65 66 66 64 64 63 62 61 60 58 56 55 55 54 53 52 51 48 46 46 46 46 47 49 50 49 47 48 48 48 48 50 51 53 55 57 60 61 62 63 64 63 61 60 59 59 61 64 66 66 67 67 68 69 71 74 78 80 81 82 82 82 82 83 87 91 93 95 94 90 83 76 72 68 66 64 63 63 63
75 73 71 69 67 66 65 66 66 64 64 64 63 62 61 59 58 57 57 56 54 52 51 50 49 49 49 50 50 52 52 51 50 50 49 49 49 51 53 54 56 59 61 62 63 63 62 60 59 57 56 58 61 63 64 65 66 67 69 71 74 77 80 81 82 82 81 81 82 85 89 92 94 95 94 90 83 76 71 68 66 65 64 62 62
76 74 72 70 68 66 66 66 66 65 66 65 64 63 62 61 60 59 58 56 55 53 52 52 52 51 51 52 53 53 52 51 50 50 50 50 51 54 56 58 60 62 63 63 63 61 58 56 56 55 56 59 61 62 63 64 66 68 71 74 77 79 80 81 81 81 80 80 83 87 90 93 95 95 94 90 82 75 71 68 66 65 63 62 60
76 74 73 71 69 67 67 68 68 68 68 67 65 64 63 62 61 60 59 57 55 54 54 54 54 54 54 55 56 55 54 53 52 52 53 55 56 55 55 57 60 62 63 64 62 58 55 54 55 57 59 60 61 62 63 65 68 71 74 76 78 79 80 80 80 79 79 82 85 89 92 94 95 94 93 89 82 75 71 69 66 64 62 61 59
75 74 73 71 69 69 69 69 70 70 69 67 66 65 64 63 62 61 60 57 54 53 54 55 56 56 56 57 58 57 55 53 53 54 56 59 59 56 54 56 60 63 64 63 58 54 53 54 57 60 61 61 61 63 65 68 71 74 76 77 78 79 79 79 78 78 81 85 88 91 93 95 94 94 92 89 82 75 72 69 66 64 62 60 58
74 73 72 70 69 68 68 69 69 69 69 68 67 66 65 64 63 62 61 57 53 51 52 54 54 54 53 54 56 56 55 54 54 55 56 57 58 58 59 60 62 62 61 58 54 53 55 57 60 62 62 62 63 65 68 70 72 74 75 76 77 78 77 77 78 80 83 87 89 91 94 95 95 94 93 89 82 76 72 69 66 64 61 59 58
73 72 70 69 68 67 67 68 68 69 69 69 68 67 66 65 64 63 61 58 55 54 54 56 58 57 55 54 54 54 56 56 55 53 53 56 57 58 58 59 58 56 54 53 54 56 59 61 62 63 63 63 65 67 69 71 72 74 75 75 76 76 76 77 79 82 85 88 90 92 94 95 95 94 93 89 83 77 73 70 67 63 61 59 57
71 71 69 68 67 67 67 67 68 69 70 70 70 68 67 66 65 63 61 60 59 58 58 59 60 60 58 57 57 58 60 62 60 57 57 57 56 54 53 53 53 53 53 55 58 61 63 64 64 63 64 65 67 68 69 71 72 73 73 73 74 76 77 78 81 84 87 89 91 93 95 96 95 95 93 89 83 77 73 70 67 63 61 59 57
70 69 68 67 66 66 66 66 68 69 70 71 70 69 68 68 67 66 64 64 64 64 64 64 64 62 60 60 61 62 62 63 62 60 57 54 52 52 52 52 53 55 57 60 63 65 65 65 64 64 65 66 68 69 70 71 71 72 72 73 75 76 78 81 84 86 88 89 91 94 95 96 95 95 93 89 83 78 73 69 66 63 60 59 57
68 68 67 66 65 64 64 64 66 68 69 70 71 71 71 70 69 68 67 67 66 66 67 66 65 63 61 60 60 59 60 61 62 60 58 56 56 56 56 56 58 60 62 64 65 65 64 64 63 64 66 67 68 69 70 70 71 72 74 75 76 78 81 84 85 87 89 91 93 95 96 96 95 95 93 89 83 78 73 69 66 63 61 59 57
64 64 64 63 62 61 61 61 63 65 67 69 70 71 71 70 69 69 69 68 67 67 67 65 62 61 62 64 63 61 61 62 62 60 58 59 59 60 61 62 64 65 66 66 65 63 63 64 64 66 67 67 68 69 70 71 73 75 76 77 78 81 83 85 86 88 90 92 94 96 96 96 96 94 92 88 83 78 73 70 67 64 61 60 58
60 60 60 59 59 58 58 60 62 64 65 66 67 67 67 67 66 66 67 67 66 66 65 62 60 60 61 63 63 61 62 63 64 62 61 60 60 61 62 62 64 65 65 66 65 65 65 66 66 67 67 68 69 70 72 74 75 76 77 79 81 83 85 86 88 89 91 93 95 96 97 97 96 94 92 89 84 78 74 71 68 65 62 60 58
57 57 57 57 57 57 57 59 61 62 62 62 61 60 59 60 61 62 62 63 64 65 64 62 60 59 59 59 60 61 63 65 66 65 64 62 62 62 61 62 65 67 66 66 67 68 67 67 68 68 69 70 71 72 74 75 76 78 80 82 84 85 87 88 89 91 93 95 96 97 97 97 96 94 92 90 85 80 76 73 70 66 63 61 59
58 56 55 56 56 56 57 59 60 60 60 59 57 55 55 56 57 58 60 61 63 63 62 61 61 61 61 62 63 65 66 67 68 69 68 66 64 63 63 65 69 71 70 70 71 70 69 69 70 71 72 72 73 74 75 77 79 81 83 84 86 87 89 90 91 93 95 96 96 97 97 97 95 94 92 90 86 81 77 75 72 68 65 62 59
58 57 57 56 56 56 58 60 61 60 59 59 58 55 54 54 54 55 57 59 60 61 60 60 62 64 65 66 66 66 67 68 70 72 71 69 67 66 67 69 72 74 75 75 75 74 73 74 73 73 73 74 75 77 79 81 83 84 85 86 88 89 91 92 94 95 96 96 97 97 98 97 95 94 93 90 86 82 78 76 73 69 65 62 60
59 58 58 58 58 58 59 60 60 59 60 61 60 58 57 55 54 54 53 53 54 56 57 59 62 66 68 67 66 65 66 67 69 71 72 70 69 69 70 71 72 73 73 74 74 74 74 74 74 75 76 76 78 81 83 84 85 86 87 88 90 91 93 94 95 96 96 97 98 98 98 97 96 95 93 90 86 82 78 75 73 69 65 62 60
61 61 60 60 59 59 60 60 58 55 55 56 56 57 58 59 60 60 58 56 57 59 60 61 65 68 70 70 70 69 68 69 71 72 71 69 68 67 68 68 68 68 69 70 71 72 73 74 76 78 79 80 81 84 85 86 87 88 89 91 92 93 95 95 96 96 97 98 99 99 99 98 97 95 93 90 85 81 78 75 71 68 65 62 60
60 62 63 63 62 61 60 60 57 53 50 51 51 51 51 53 56 61 62 62 63 64 65 67 70 71 72 73 73 73 71 71 71 71 70 69 69 70 71 71 71 71 72 73 74 75 76 78 80 81 83 83 85 86 87 88 90 91 92 93 94 95 96 96 97 98 99 100 101 101 100 99 97 95 93 89 85 80 77 73 70 66 63 61 60
59 61 63 65 66 66 63 61 59 55 52 50 50 51 50 49 51 55 58 60 61 62 63 64 66 68 70 71 72 72 73 73 73 74 74 76 77 78 79 79 79 78 78 79 79 80 81 82 83 84 85 87 87 88 89 90 92 93 94 96 96 96 97 97 98 100 101 101 102 102 101 99 97 95 92 88 84 80 76 73 68 65 63 62 61
60 61 62 63 66 68 69 67 65 62 60 58 57 57 57 57 57 58 60 62 63 63 62 62 62 64 66 68 70 72 74 76 77 79 81 82 83 84 84 84 84 83 83 82 83 83 84 85 86 87 88 89 90 90 91 92 94 95 96 97 97 98 98 100 101 102 102 102 102 102 100 98 96 94 91 87 83 79 76 72 68 65 63 63 63
63 63 62 62 63 66 69 70 70 69 70 70 70 68 67 66 64 64 65 66 67 66 65 66 66 67 69 71 72 74 76 77 79 81 82 84 85 86 86 85 85 84 84 84 84 85 86 87 88 89 90 91 92 93 94 95 96 97 98 98 99 100 101 102 103 103 103 103 102 101 99 97 95 93 90 86 82 78 75 71 68 65 64 64 64
Wind_Direction
241 242 243 244 245 246 248 249 250 251 252 254 255 258 260 263 266 268 269 271 273 275 277 278 280 281 282 283 285 289 291 291 290 290 292 294 294 294 295 297 298 300 302 301 300 300 298 298 300 304 310 317 324 327 331 336 337 335 335 337 341 343 344 344 343 342 343 343 343 344 345 344 343 342 340 337 334 333 332 329 328 327 327 327 325
240 241 242 244 245 247 249 250 250 251 252 253 255 257 260 263 266 268 270 271 273 275 276 278 279 280 281 283 286 289 289 288 288 290 292 293 293 294 296 297 298 300 299 299 299 298 296 297 300 305 310 316 322 326 330 334 336 335 334 335 338 340 342 343 343 341 341 342 343 343 344 344 343 343 342 339 335 334 332 331 330 329 329 327 326
240 241 243 244 245 247 249 252 252 251 252 254 255 258 260 263 266 268 269 271 272 273 275 277 278 278 280 284 287 287 285 285 287 290 291 292 293 295 296 297 298 298 297 298 299 297 295 297 300 304 308 313 321 325 329 332 334 335 334 335 336 338 339 341 342 341 340 341 342 343 343 343 344 345 344 341 337 334 333 332 331 330 329 327 326
240 242 243 244 245 246 250 252 253 253 253 254 256 258 261 263 265 267 268 269 270 272 274 274 275 277 280 284 284 282 282 284 287 290 292 294 294 295 296 297 296 296 297 299 299 297 296 298 301 303 306 312 320 325 327 330 333 334 334 335 335 336 338 341 341 339 338 339 341 342 342 342 343 345 346 343 339 336 334 333 332 330 328 327 327
239 241 243 244 245 246 249 252 253 253 253 254 256 258 260 262 263 265 266 268 269 271 271 271 273 277 280 281 279 279 280 283 288 292 294 295 296 296 296 296 295 297 299 300 300 298 299 300 301 302 304 311 319 324 326 329 332 332 333 334 334 336 338 339 339 337 336 337 339 341 341 341 343 345 346 345 342 338 335 334 332 330 328 328 328
237 239 241 243 244 246 248 251 252 252 252 252 254 256 258 259 261 263 265 266 267 268 268 270 274 277 277 276 275 276 280 285 290 294 295 296 297 297 296 294 294 297 299 300 301 302 302 302 302 302 303 309 318 322 325 329 330 330 331 332 333 335 336 336 336 335 335 336 338 340 340 341 342 344 345 344 342 339 336 333 332 331 329 329 328
235 238 240 242 243 245 247 249 250 250 250 251 252 254 256 258 260 262 262 263 264 264 266 270 273 273 272 270 272 276 282 288 293 295 296 298 298 296 293 291 293 296 298 299 301 304 305 304 303 301 301 307 316 322 325 327 328 328 329 330 332 333 334 334 334 334 333 335 337 339 340 341 341 343 344 343 342 340 336 333 332 331 331 330 329
234 237 239 240 242 244 246 247 247 248 249 250 251 253 255 257 259 259 260 260 261 262 265 269 269 267 266 267 271 278 285 291 294 296 298 298 297 294 290 289 292 295 295 296 299 303 304 304 303 301 301 307 316 321 323 325 326 327 328 330 331 332 332 333 333 333 333 334 337 338 340 341 341 342 342 342 341 339 337 334 332 331 331 330 329
233 236 238 240 242 243 244 245 246 247 248 248 250 252 254 256 257 257 257 258 259 261 264 265 263 262 263 266 273 280 287 292 295 296 297 298 296 292 288 288 291 292 293 296 299 300 300 302 302 302 302 308 317 321 322 324 325 325 327 329 330 331 331 332 332 332 333 334 336 338 340 340 341 341 341 341 340 339 337 335 332 331 330 329 328
232 235 237 239 241 241 242 244 244 245 246 247 248 250 252 254 254 255 255 256 257 260 260 259 258 259 262 268 275 282 288 292 293 294 296 297 294 289 287 288 289 291 294 298 298 298 300 302 301 301 304 311 317 319 320 322 323 324 327 328 329 330 330 331 331 332 332 334 336 338 339 340 341 341 340 339 339 338 336 334 333 331 330 328 327
232 234 236 237 239 240 241 242 243 244 245 246 247 249 249 250 251 252 253 254 256 257 257 256 257 259 264 270 276 282 287 290 291 292 294 295 291 287 287 288 291 294 296 295 294 297 301 301 299 301 307 312 316 318 320 321 322 324 326 327 328 328 329 330 331 331 332 333 335 337 339 340 340 340 340 338 337 337 335 333 332 331 330 328 326
232 233 235 237 238 239 240 241 242 243 244 244 245 246 246 247 249 250 250 251 253 255 255 255 257 262 267 272 277 282 286 287 288 290 292 292 289 288 288 291 294 296 294 292 292 296 299 299 299 304 309 312 315 317 319 320 321 324 325 326 327 327 327 329 331 331 331 333 334 337 339 340 340 340 339 338 337 336 334 333 332 331 330 328 326
232 233 234 236 237 238 239 240 241 243 242 242 243 244 244 245 246 245 246 249 252 253 253 255 259 266 271 275 278 282 284 285 286 287 289 290 291 291 292 294 295 294 292 291 292 295 298 299 302 306 309 311 314 316 317 317 319 323 324 325 325 325 326 328 330 330 331 332 334 336 338 339 340 340 339 337 336 335 334 333 331 331 330 328 326
231 232 233 234 235 236 238 239 241 242 241 240 241 241 241 242 242 241 243 247 250 251 252 256 262 268 272 274 278 282 284 284 284 285 287 289 291 292 292 292 293 293 294 294 294 295 297 299 301 304 307 310 312 313 314 314 317 322 323 324 324 324 325 327 328 329 330 331 333 336 338 339 340 340 339 337 336 335 334 332 331 331 330 328 327
230 232 233 233 233 234 237 239 240 241 241 240 239 239 239 239 238 238 241 246 249 251 253 257 262 267 271 274 279 281 282 283 283 284 286 288 291 292 292 291 291 293 295 294 293 294 295 297 299 301 304 306 307 309 309 311 316 320 322 322 322 323 325 327 327 328 329 331 333 335 337 339 340 340 339 337 335 334 333 332 332 331 330 328 327
229 231 232 231 231 233 235 237 238 240 240 238 237 237 237 237 236 237 241 245 249 251 253 256 261 267 271 275 277 280 283 285 285 284 284 285 288 291 291 289 289 291 291 291 291 292 294 296 297 298 300 302 303 304 305 309 316 320 320 320 320 322 325 326 327 327 328 330 332 334 336 338 339 341 339 337 335 334 333 332 332 331 330 328 328
228 230 230 230 229 231 232 234 235 237 238 237 235 235 236 236 236 237 240 245 249 252 254 257 261 267 271 273 277 281 285 286 285 283 282 283 284 286 286 287 289 290 291 290 290 290 292 294 295 296 298 300 301 302 304 309 316 318 318 317 319 322 324 325 325 326 327 329 331 333 336 337 339 341 340 337 335 334 333 332 332 331 329 328 328
227 228 229 228 228 229 231 232 232 234 235 235 234 235 235 236 235 237 240 245 250 254 256 258 262 266 269 273 278 283 285 286 285 282 279 278 280 281 284 286 288 290 291 291 290 290 291 294 296 298 299 300 302 304 306 311 315 316 315 316 318 321 322 323 324 325 326 328 330 332 335 336 338 340 340 337 335 334 333 332 331 330 328 328 328
227 228 228 227 227 228 230 231 231 233 233 233 234 234 235 236 235 237 241 245 250 254 257 259 262 265 269 274 279 282 284 286 287 283 278 275 275 279 283 286 289 291 292 291 291 292 295 298 300 300 301 303 305 307 309 312 314 314 314 314 317 319 321 322 323 324 325 327 329 332 334 336 337 340 340 337 335 334 333 332 331 329 328 328 328
227 227 227 227 226 227 229 230 231 233 233 232 233 234 236 236 236 237 240 245 250 254 256 258 261 264 268 272 276 279 281 284 284 281 277 274 274 279 282 285 291 295 294 293 294 296 298 301 302 304 306 307 308 308 309 311 313 313 312 313 315 318 319 321 322 323 324 326 328 331 333 335 336 339 340 338 335 334 333 331 330 328 327 327 328
227 227 227 227 226 226 228 229 231 232 232 232 233 235 236 236 237 238 240 244 249 253 255 258 261 265 268 271 274 276 279 282 281 278 275 274 275 279 281 282 289 295 295 295 298 300 301 303 305 307 309 309 308 309 310 311 312 311 311 312 314 316 318 319 321 322 323 325 328 330 332 334 335 338 339 338 335 333 332 331 329 327 326 327 327
227 227 227 226 225 225 226 227 230 232 232 233 234 236 236 236 237 239 241 244 248 252 256 259 263 267 270 272 274 276 277 280 280 277 275 276 277 279 280 281 287 295 295 295 300 303 304 306 307 308 308 308 308 309 310 310 310 309 309 310 313 315 317 318 320 321 323 325 327 329 331 333 334 337 338 338 336 333 332 330 328 326 326 326 327
227 227 227 226 224 224 225 226 228 231 232 233 235 236 237 237 238 240 242 244 248 252 257 261 266 269 272 274 277 277 278 280 280 278 277 278 280 282 282 282 287 293 294 295 299 303 303 304 304 304 305 306 306 307 308 308 307 307 308 309 311 314 316 317 319 320 322 324 327 329 331 332 334 336 338 338 336 333 331 329 326 325 325 326 326
227 227 228 227 225 225 225 226 228 229 230 232 234 236 238 239 239 241 243 246 249 253 256 262 266 270 274 277 279 279 279 280 279 277 277 279 282 284 284 284 286 291 294 296 298 298 299 301 302 302 302 303 304 305 305 305 305 305 306 308 311 314 316 317 318 320 322 324 326 328 330 331 333 336 338 337 335 333 331 328 325 324 324 325 326
227 228 228 228 226 225 226 227 228 228 230 231 233 235 237 239 241 242 244 246 250 253 256 261 266 272 277 281 280 279 280 279 275 275 277 281 283 285 286 286 286 289 293 297 298 296 297 300 303 303 302 303 304 304 304 304 304 304 306 309 312 314 316 317 318 320 322 324 326 327 329 330 333 336 337 337 335 333 330 327 325 324 324 325 325
227 228 229 229 227 226 227 228 229 229 230 231 233 235 237 239 241 243 245 247 250 253 257 261 266 272 277 281 283 282 279 275 272 274 280 286 289 290 289 287 285 286 290 296 298 297 297 299 302 302 301 302 302 302 302 303 303 304 306 309 312 314 315 317 318 320 321 323 325 326 328 330 333 335 337 337 335 333 330 327 324 324 324 325 325
227 228 229 229 229 227 227 228 229 230 231 232 233 235 237 239 241 243 245 247 250 253 257 261 265 270 272 276 282 278 266 263 268 274 281 287 290 290 287 285 284 285 290 295 298 298 298 299 300 300 299 299 300 300 301 302 303 304 307 309 311 313 314 316 317 319 320 322 324 326 328 330 333 335 337 336 334 332 330 327 325 324 325 325 325
229 229 230 230 230 229 228 228 230 231 233 234 235 236 237 239 240 242 245 247 249 252 255 258 262 265 266 269 274 269 257 258 264 270 276 283 285 283 281 281 281 285 291 295 296 297 300 301 299 298 298 297 298 299 300 301 302 304 306 308 310 311 313 314 316 318 320 322 323 325 327 330 332 335 336 336 334 332 329 327 325 325 325 325 325
230 230 231 232 232 231 229 229 231 233 234 236 237 238 239 239 240 242 245 247 249 251 253 255 258 262 263 266 269 267 262 263 266 270 275 279 278 278 280 281 282 285 289 291 290 291 297 300 298 296 295 294 295 297 298 300 302 304 306 307 308 310 312 313 316 318 319 321 322 324 327 329 331 335 336 336 333 331 329 327 325 324 324 324 324
231 232 232 233 234 234 232 230 231 233 235 237 237 238 239 240 241 242 245 248 249 251 254 255 258 262 264 265 267 267 265 264 266 271 276 276 273 273 275 277 280 283 285 286 287 289 294 297 294 292 292 292 294 296 298 299 302 303 305 306 307 309 311 313 315 317 318 320 321 323 326 328 331 334 336 335 333 331 329 327 325 324 323 323 324
230 231 232 233 234 234 233 231 231 233 235 237 238 239 240 241 242 243 245 247 249 252 255 258 260 263 266 266 267 268 265 263 264 270 274 274 272 271 271 273 277 281 283 286 288 289 291 291 290 290 292 294 296 297 298 300 301 302 303 305 307 309 311 312 314 316 318 319 321 323 325 328 331 333 335 335 333 331 329 327 325 324 323 323 323
229 230 231 233 234 234 234 232 232 234 236 238 239 240 241 242 243 244 245 247 250 253 257 259 261 264 266 266 266 268 268 266 267 269 271 271 270 271 272 274 277 279 281 284 286 287 287 286 287 289 292 295 297 297 298 299 300 300 302 304 306 308 310 312 314 316 317 319 321 323 325 328 330 333 335 335 333 331 329 326 324 323 322 322 323
227 228 229 231 232 233 233 233 233 234 237 238 239 241 242 243 244 245 247 249 251 254 257 259 261 263 265 265 265 268 270 269 268 269 270 270 268 267 269 273 275 277 279 281 284 285 284 284 286 289 293 296 297 298 298 298 298 300 302 304 306 308 310 312 314 316 317 318 320 323 325 327 330 332 334 334 333 331 328 326 324 323 322 322 323
228 228 229 229 230 231 231 231 232 234 236 238 239 241 243 244 246 247 248 250 252 255 258 260 262 264 265 265 265 268 270 270 270 271 272 271 268 267 270 273 275 276 278 281 283 284 283 284 287 291 294 296 297 296 296 296 298 300 302 304 306 308 310 312 314 315 316 318 320 322 325 327 329 331 333 334 333 331 328 326 324 323 321 321 322
228 229 229 230 230 231 232 232 233 234 236 238 240 242 243 245 246 248 249 250 253 257 260 261 263 265 266 267 267 269 270 271 272 272 271 270 271 272 273 275 276 277 279 280 281 282 283 286 290 293 295 296 295 295 295 296 298 300 302 303 305 308 310 312 313 315 316 318 320 323 325 327 329 330 332 333 332 330 328 326 324 323 321 321 322
228 229 230 231 231 233 234 234 234 235 237 239 240 242 244 245 246 248 249 251 252 254 255 258 260 262 264 266 267 268 268 270 271 271 270 272 275 276 277 278 279 279 278 278 279 281 285 288 292 293 294 293 293 293 294 296 297 299 301 303 305 308 310 311 313 315 317 319 321 323 325 326 328 329 331 332 331 330 328 326 325 323 321 321 322
229 230 231 232 232 233 234 235 235 236 237 239 241 242 244 245 246 248 250 251 250 250 251 254 257 259 262 263 264 266 268 269 269 269 270 274 276 278 279 279 278 277 276 277 280 284 286 289 291 292 292 292 292 292 294 295 297 299 302 304 306 308 310 312 313 315 317 319 321 323 324 325 327 328 330 331 331 330 328 327 325 323 321 321 321
229 231 232 232 233 234 235 235 236 236 237 239 241 242 244 245 246 248 249 250 250 250 251 253 256 258 259 259 259 262 266 268 268 268 270 273 275 276 277 277 275 274 277 280 283 285 287 289 290 291 290 290 291 292 294 296 298 300 302 304 306 308 310 312 313 315 317 319 320 322 323 324 326 327 329 330 330 329 328 326 325 323 321 320 320
229 230 231 232 233 235 236 237 237 238 239 240 241 243 244 245 246 247 249 251 252 253 254 254 255 256 257 255 256 259 263 266 268 268 268 269 272 272 272 273 274 275 278 280 282 283 286 287 288 288 289 289 291 293 295 297 299 300 301 303 305 307 309 311 313 315 317 318 320 321 322 323 324 326 327 328 329 328 327 326 324 322 320 319 319
230 230 231 232 234 235 237 238 239 240 240 241 242 243 245 246 247 249 250 252 254 255 256 255 254 253 252 252 254 258 262 264 267 268 269 270 272 271 270 272 275 278 279 280 282 284 286 286 286 287 288 289 292 294 296 297 298 299 300 302 304 307 309 311 313 315 316 318 319 320 321 322 323 325 326 327 328 327 327 326 323 321 320 319 319
231 232 232 233 234 235 237 238 240 240 241 242 243 244 246 247 249 251 251 252 253 254 254 253 252 250 248 250 255 259 262 263 265 269 272 273 273 271 270 274 278 280 281 282 284 286 286 286 285 286 288 290 292 294 295 296 297 298 300 302 304 306 309 310 312 314 315 317 318 319 320 321 322 324 326 327 327 326 326 325 323 321 319 319 319
231 232 233 233 234 235 236 237 238 240 241 242 244 246 248 249 250 251 251 251 251 250 250 250 252 252 252 253 256 258 259 260 262 266 271 272 272 271 272 276 279 280 281 283 284 285 285 285 286 287 289 291 292 293 294 295 296 297 299 302 304 306 308 310 312 313 314 315 316 317 319 320 322 323 325 326 326 326 325 325 324 321 320 319 318
229 231 232 233 233 234 234 235 237 239 242 244 245 246 248 248 249 248 248 247 247 247 247 249 252 254 255 255 255 254 255 257 260 263 267 269 270 271 274 277 278 279 280 282 282 283 284 285 286 288 289 290 291 292 293 294 295 297 299 302 304 306 308 309 311 312 313 314 315 317 318 320 321 322 324 325 325 325 325 324 324 322 320 319 318
228 229 231 232 233 234 235 235 236 237 240 243 244 245 245 246 246 246 246 246 245 246 248 250 252 254 254 254 254 255 257 259 260 262 264 266 267 270 274 278 279 279 280 281 281 282 284 285 286 287 288 289 290 291 293 294 296 298 300 302 304 306 307 308 310 311 312 313 315 316 317 319 320 322 323 324 324 324 324 324 323 322 320 319 317
227 228 229 231 233 234 236 237 237 238 239 241 243 244 244 245 247 247 247 246 246 247 248 249 251 254 255 254 254 256 258 259 261 262 263 264 266 269 273 277 279 280 281 281 281 282 283 284 285 286 287 288 290 291 293 295 297 299 301 302 303 305 306 307 308 310 311 313 314 315 317 318 320 321 322 323 324 323 323 323 322 321 319 318 317
227 226 227 229 231 232 234 237 240 241 242 242 244 246 245 243 243 243 242 241 242 244 245 245 247 251 254 254 255 256 257 258 260 263 265 267 269 272 274 277 279 280 281 281 281 281 282 283 284 285 287 289 291 292 294 295 297 299 300 302 303 304 305 306 308 309 310 312 313 315 316 317 319 320 321 322 323 322 322 321 320 319 318 317 316
229 227 226 226 228 230 233 235 237 241 245 246 247 247 247 244 241 239 238 237 238 241 242 243 244 247 250 252 254 256 257 258 261 265 268 270 272 273 274 275 276 277 277 278 278 279 281 282 284 286 287 289 291 292 293 295 297 298 299 300 302 303 304 306 307 308 310 311 312 314 315 316 318 319 321 321 321 320 320 319 318 317 315 315 314
230 230 229 226 225 227 232 234 234 235 241 246 247 245 245 244 243 243 244 244 244 244 244 245 246 248 250 252 254 255 256 258 261 264 266 268 270 271 272 273 273 274 275 276 277 279 281 282 284 286 288 289 290 291 293 295 296 297 298 300 301 302 304 305 307 308 309 310 311 313 314 315 317 318 319 320 319 319 318 317 316 314 313 313 313
230 232 232 230 226 224 227 231 232 230 230 234 237 238 238 238 238 240 243 245 246 247 247 247 249 250 252 253 254 255 255 257 259 261 263 266 268 270 272 273 273 274 275 276 278 279 281 282 283 285 286 287 289 291 292 294 296 297 298 299 301 302 303 305 306 307 308 309 310 312 313 314 316 317 318 318 317 317 316 315 313 312 311 311 311
229 231 233 234 231 228 226 227 230 229 227 225 227 230 233 235 235 235 235 235 237 240 242 243 245 248 250 252 254 255 256 257 259 261 263 265 267 269 271 272 273 274 276 277 278 279 280 282 283 284 285 287 288 290 292 293 295 296 297 299 300 301 302 303 304 306 307 308 309 311 312 314 315 316 316 316 315 315 314 312 311 310 310 310 310
229 230 231 233 234 234 231 229 229 229 228 226 227 228 231 233 235 234 231 229 230 232 235 239 242 246 249 251 253 255 257 259 261 263 264 266 267 268 270 271 272 274 275 277 278 279 280 282 283 284 285 287 289 290 291 293 294 295 296 298 299 300 301 302 303 305 306 307 309 310 311 313 314 314 314 314 313 313 312 310 309 309 309 309 310
Height
10666 10668 10671 10673 10675 10678 10679 10682 10686 10690 10693 10695 10696 10697 10697 10698 10699 10701 10702 10702 10702 10702 10703 10703 10703 10702 10701 10700 10699 10699 10699 10697 10696 10695 10694 10693 10692 10691 10690 10688 10687 10686 10685 10683 10682 10681 10679 10677 10675 10673 10670 10668 10665 10663 10660 10657 10654 10650 10646 10642 10638 10634 10629 10624 10619 10614 10609 10604 10598 10592 10587 10580 10574 10567 10560 10553 10548 10543 10539 10534 10529 10525 10520 10516 10511
10659 10662 10664 10667 10670 10672 10673 10676 10681 10685 10688 10689 10690 10691 10692 10693 10695 10696 10697 10697 10697 10697 10698 10698 10698 10697 10696 10695 10695 10695 10694 10693 10692 10691 10690 10689 10688 10687 10686 10685 10683 10682 10681 10680 10679 10677 10676 10674 10672 10669 10667 10665 10662 10659 10656 10654 10650 10646 10642 10638 10634 10629 10625 10620 10615 10610 10605 10600 10594 10588 10583 10576 10570 10562 10555 10549 10544 10540 10536 10530 10525 10520 10516 10510 10505
10653 10655 10658 10662 10665 10667 10667 10671 10676 10680 10682 10683 10684 10686 10687 10689 10690 10691 10692 10693 10693 10693 10693 10693 10693 10692 10691 10691 10691 10690 10689 10688 10688 10687 10686 10685 10685 10683 10682 10681 10679 10678 10678 10677 10676 10674 10672 10671 10668 10666 10664 10661 10659 10656 10653 10650 10646 10642 10638 10634 10629 10625 10620 10615 10611 10605 10600 10596 10591 10585 10579 10573 10567 10559 10552 10545 10540 10536 10532 10527 10521 10516 10511 10506 10500
10647 10650 10654 10656 10659 10662 10663 10665 10671 10674 10676 10678 10679 10680 10682 10684 10685 10686 10687 10687 10688 10688 10688 10688 10688 10687 10687 10687 10687 10686 10685 10684 10684 10683 10683 10682 10681 10679 10678 10677 10676 10675 10674 10673 10672 10671 10669 10667 10665 10662 10660 10658 10655 10652 10649 10646 10642 10638 10634 10629 10625 10621 10615 10610 10605 10601 10597 10592 10587 10581 10576 10570 10563 10556 10548 10542 10536 10531 10527 10523 10517 10512 10506 10501 10496
10642 10645 10648 10650 10654 10657 10658 10661 10665 10669 10670 10672 10674 10675 10677 10679 10680 10681 10682 10683 10683 10684 10683 10683 10683 10683 10683 10683 10683 10682 10681 10681 10680 10680 10679 10678 10677 10676 10675 10673 10672 10672 10671 10670 10669 10667 10666 10664 10661 10659 10656 10654 10651 10648 10645 10642 10638 10634 10630 10626 10621 10616 10611 10607 10603 10599 10594 10589 10584 10578 10572 10566 10559 10552 10545 10538 10532 10527 10522 10517 10513 10509 10503 10497 10491
10637 10640 10642 10645 10649 10651 10653 10657 10660 10662 10665 10667 10669 10670 10673 10674 10675 10676 10677 10678 10679 10679 10678 10678 10679 10679 10679 10679 10679 10678 10678 10677 10677 10676 10675 10674 10673 10672 10671 10670 10669 10669 10668 10667 10665 10664 10662 10660 10657 10655 10653 10650 10648 10645 10641 10638 10634 10630 10626 10622 10618 10613 10609 10605 10601 10596 10591 10585 10580 10574 10568 10561 10554 10547 10540 10534 10528 10522 10517 10512 10507 10503 10498 10493 10487
10632 10634 10637 10640 10644 10646 10649 10652 10654 10657 10659 10662 10664 10666 10667 10669 10670 10672 10673 10674 10674 10674 10674 10674 10675 10676 10676 10675 10676 10675 10674 10674 10674 10673 10672 10671 10670 10669 10668 10667 10666 10665 10664 10663 10661 10660 10658 10656 10653 10651 10649 10647 10644 10641 10638 10634 10630 10627 10623 10619 10615 10611 10607 10603 10598 10593 10587 10581 10576 10569 10563 10556 10549 10542 10536 10529 10524 10518 10513 10507 10502 10496 10491 10486 10481
10626 10629 10632 10635 10639 10642 10645 10647 10649 10652 10654 10657 10659 10660 10662 10663 10665 10667 10668 10669 10669 10669 10670 10671 10671 10672 10672 10672 10672 10671 10671 10671 10670 10669 10668 10667 10666 10665 10664 10663 10662 10661 10660 10658 10657 10656 10654 10651 10649 10647 10645 10643 10641 10638 10634 10630 10627 10623 10619 10615 10612 10607 10603 10599 10594 10589 10583 10577 10571 10565 10558 10552 10545 10538 10531 10525 10519 10513 10508 10502 10496 10491 10485 10479 10473
10620 10623 10627 10631 10635 10637 10639 10642 10645 10647 10649 10652 10654 10655 10657 10659 10660 10662 10663 10664 10664 10665 10666 10667 10668 10668 10668 10669 10668 10668 10667 10667 10666 10665 10664 10663 10662 10661 10660 10659 10658 10657 10656 10654 10653 10651 10649 10647 10645 10643 10641 10640 10637 10634 10630 10627 10624 10620 10616 10612 10608 10603 10599 10594 10590 10584 10579 10573 10567 10560 10554 10547 10541 10534 10527 10521 10515 10508 10503 10497 10491 10486 10480 10474 10467
10614 10618 10623 10627 10629 10632 10636 10639 10640 10642 10644 10647 10649 10651 10653 10655 10656 10657 10658 10659 10660 10661 10663 10664 10664 10665 10665 10665 10665 10664 10664 10664 10662 10661 10661 10659 10658 10657 10656 10655 10654 10653 10652 10651 10649 10646 10645 10643 10641 10639 10637 10635 10633 10630 10627 10624 10620 10616 10613 10608 10604 10599 10595 10590 10585 10580 10574 10569 10563 10556 10550 10543 10537 10530 10523 10516 10510 10504 10498 10492 10486 10481 10475 10469 10463
10608 10614 10619 10621 10624 10628 10633 10634 10635 10637 10640 10643 10645 10646 10649 10650 10651 10653 10654 10655 10656 10657 10659 10660 10661 10661 10661 10661 10661 10661 10661 10660 10659 10657 10657 10656 10654 10654 10653 10652 10651 10650 10648 10646 10644 10642 10641 10639 10637 10635 10633 10631 10629 10626 10623 10620 10616 10613 10609 10605 10600 10596 10591 10587 10581 10576 10570 10564 10559 10552 10546 10539 10533 10526 10519 10512 10506 10499 10493 10487 10481 10476 10470 10464 10458
10604 10609 10613 10616 10620 10626 10628 10629 10630 10633 10636 10639 10640 10642 10644 10646 10647 10648 10649 10650 10652 10654 10656 10657 10657 10657 10658 10658 10657 10657 10657 10656 10655 10653 10653 10652 10651 10650 10649 10648 10647 10646 10644 10641 10640 10639 10637 10635 10633 10631 10629 10627 10624 10621 10619 10616 10612 10609 10605 10601 10597 10592 10588 10583 10578 10572 10566 10560 10554 10548 10542 10535 10529 10522 10515 10508 10502 10495 10489 10483 10477 10472 10466 10460 10453
10599 10604 10608 10611 10617 10622 10623 10623 10626 10629 10632 10634 10636 10638 10640 10641 10642 10644 10645 10646 10648 10650 10651 10652 10653 10654 10654 10654 10653 10653 10653 10652 10651 10649 10649 10648 10648 10647 10646 10645 10643 10641 10639 10638 10636 10635 10633 10631 10629 10627 10625 10623 10620 10617 10615 10612 10608 10605 10601 10597 10593 10588 10584 10579 10574 10568 10563 10557 10551 10545 10538 10532 10526 10518 10511 10504 10498 10491 10485 10479 10474 10468 10462 10456 10450
10594 10598 10602 10607 10613 10617 10617 10619 10622 10624 10627 10630 10632 10633 10635 10636 10638 10639 10640 10641 10643 10645 10647 10648 10649 10649 10649 10649 10649 10649 10648 10647 10647 10645 10645 10645 10644 10643 10642 10640 10639 10638 10636 10634 10633 10631 10629 10627 10625 10623 10621 10618 10616 10613 10611 10607 10604 10601 10597 10593 10589 10584 10580 10575 10570 10564 10559 10553 10547 10541 10535 10529 10522 10515 10508 10500 10494 10487 10481 10476 10470 10464 10458 10453 10447
10588 10592 10597 10603 10609 10611 10612 10615 10618 10620 10623 10626 10627 10628 10630 10632 10633 10635 10636 10637 10639 10641 10643 10644 10644 10644 10644 10644 10644 10644 10643 10643 10642 10641 10641 10641 10640 10639 10638 10636 10635 10634 10633 10631 10629 10627 10625 10623 10621 10619 10617 10614 10612 10609 10606 10603 10601 10597 10593 10589 10585 10581 10576 10571 10566 10560 10555 10549 10543 10537 10532 10526 10519 10512 10505 10497 10490 10483 10477 10472 10466 10460 10454 10449 10444
10581 10586 10592 10599 10603 10605 10607 10610 10613 10616 10619 10621 10622 10624 10626 10627 10628 10630 10631 10633 10635 10637 10638 10639 10639 10640 10640 10640 10639 10638 10638 10638 10638 10637 10637 10636 10635 10635 10634 10633 10632 10630 10629 10628 10626 10623 10621 10619 10618 10616 10613 10611 10608 10605 10602 10599 10597 10593 10589 10585 10581 10576 10571 10566 10562 10556 10551 10545 10540 10534 10528 10522 10516 10509 10501 10493 10486 10479 10473 10468 10462 10456 10451 10445 10440
10576 10581 10587 10593 10597 10598 10601 10605 10609 10612 10613 10615 10617 10619 10621 10622 10624 10626 10627 10629 10631 10632 10633 10634 10635 10636 10635 10635 10634 10634 10633 10633 10633 10632 10632 10631 10631 10630 10629 10628 10627 10626 10625 10623 10621 10619 10617 10615 10614 10611 10609 10606 10604 10601 10598 10595 10593 10589 10585 10580 10576 10572 10567 10562 10558 10552 10547 10542 10536 10531 10525 10519 10512 10505 10498 10490 10483 10475 10469 10464 10459 10454 10448 10443 10437
10570 10575 10581 10586 10589 10592 10595 10600 10604 10606 10608 10610 10612 10614 10616 10618 10620 10621 10623 10625 10626 10627 10628 10630 10631 10631 10630 10629 10629 10629 10629 10629 10628 10627 10627 10626 10625 10625 10624 10623 10622 10621 10620 10618 10617 10615 10613 10612 10610 10607 10604 10602 10599 10596 10594 10591 10588 10584 10580 10576 10572 10568 10563 10559 10554 10549 10544 10538 10533 10528 10522 10516 10509 10502 10495 10487 10479 10472 10466 10461 10456 10451 10446 10441 10435
10564 10569 10573 10578 10582 10587 10592 10596 10599 10601 10603 10605 10607 10609 10611 10613 10616 10618 10619 10620 10621 10622 10624 10625 10626 10626 10625 10625 10625 10624 10624 10624 10623 10622 10622 10621 10620 10619 10619 10618 10617 10616 10614 10613 10612 10611 10609 10607 10605 10603 10600 10597 10594 10592 10589 10586 10583 10580 10576 10572 10568 10564 10559 10555 10550 10545 10540 10535 10530 10524 10519 10513 10507 10500 10492 10484 10476 10469 10463 10458 10453 10448 10443 10438 10433
10557 10561 10566 10572 10578 10584 10589 10592 10594 10595 10597 10600 10603 10604 10606 10609 10612 10613 10614 10615 10616 10617 10619 10620 10620 10620 10620 10620 10620 10619 10619 10619 10618 10617 10616 10615 10614 10614 10613 10612 10612 10610 10609 10608 10607 10606 10605 10603 10600 10597 10595 10592 10590 10587 10584 10581 10578 10575 10571 10567 10564 10560 10555 10551 10546 10542 10537 10532 10527 10521 10516 10509 10503 10497 10489 10481 10473 10466 10460 10455 10450 10445 10440 10435 10430
10550 10555 10560 10568 10575 10580 10583 10586 10588 10590 10592 10596 10598 10600 10603 10605 10606 10607 10608 10610 10611 10612 10612 10613 10614 10614 10614 10614 10614 10613 10613 10612 10612 10611 10610 10610 10609 10608 10608 10608 10607 10606 10604 10603 10603 10601 10599 10597 10595 10592 10590 10588 10585 10582 10579 10576 10573 10569 10566 10563 10559 10556 10551 10547 10542 10538 10533 10528 10523 10518 10512 10506 10500 10494 10486 10478 10470 10463 10457 10452 10447 10443 10438 10432 10427
10545 10550 10556 10563 10569 10573 10576 10579 10581 10584 10588 10592 10594 10596 10598 10599 10600 10601 10603 10605 10605 10606 10607 10609 10609 10609 10608 10608 10609 10608 10607 10606 10606 10606 10605 10605 10604 10603 10603 10603 10602 10601 10600 10598 10597 10596 10594 10592 10590 10588 10586 10583 10581 10578 10575 10571 10568 10564 10561 10558 10555 10552 10548 10543 10539 10534 10530 10525 10520 10515 10509 10503 10497 10491 10483 10476 10468 10460 10454 10449 10445 10440 10435 10430 10424
10540 10545 10551 10557 10562 10566 10569 10572 10576 10580 10584 10586 10588 10590 10591 10593 10594 10596 10598 10599 10601 10602 10603 10604 10605 10604 10603 10602 10603 10602 10601 10601 10601 10600 10600 10600 10599 10598 10598 10597 10596 10595 10594 10593 10592 10590 10588 10587 10585 10583 10581 10579 10576 10573 10570 10566 10562 10559 10556 10553 10550 10547 10544 10540 10535 10531 10527 10522 10517 10512 10506 10499 10493 10487 10480 10473 10465 10457 10451 10446 10442 10437 10432 10427 10422
10536 10541 10546 10550 10555 10559 10563 10567 10570 10574 10577 10579 10581 10582 10584 10586 10589 10591 10593 10594 10596 10597 10599 10600 10601 10600 10599 10598 10597 10597 10596 10596 10596 10594 10594 10594 10593 10592 10592 10591 10590 10589 10588 10588 10587 10585 10583 10582 10580 10578 10576 10574 10571 10568 10564 10561 10558 10555 10551 10548 10545 10542 10539 10535 10531 10527 10522 10518 10513 10508 10502 10496 10489 10483 10476 10469 10462 10455 10449 10444 10439 10434 10429 10424 10419
10531 10536 10540 10545 10549 10554 10557 10561 10564 10568 10571 10572 10574 10576 10578 10581 10584 10587 10588 10589 10591 10593 10595 10596 10596 10596 10595 10593 10592 10592 10592 10591 10590 10589 10588 10588 10588 10587 10586 10584 10583 10584 10583 10582 10581 10580 10578 10577 10575 10573 10570 10568 10565 10562 10559 10556 10553 10549 10546 10543 10540 10537 10534 10530 10526 10522 10517 10513 10508 10504 10498 10492 10485 10479 10472 10465 10458 10451 10445 10441 10436 10431 10426 10421 10415
10527 10531 10535 10539 10543 10547 10551 10555 10559 10562 10564 10565 10568 10570 10573 10577 10580 10581 10582 10584 10586 10588 10590 10592 10592 10591 10590 10589 10589 10588 10587 10585 10585 10585 10584 10583 10583 10583 10581 10578 10576 10578 10578 10577 10575 10574 10572 10570 10569 10567 10564 10562 10560 10557 10555 10552 10548 10544 10541 10538 10535 10532 10529 10526 10522 10517 10513 10509 10504 10500 10494 10488 10481 10475 10468 10461 10454 10447 10442 10437 10433 10428 10422 10417 10411
10521 10525 10528 10532 10535 10539 10544 10549 10552 10555 10557 10559 10562 10565 10569 10573 10575 10575 10576 10578 10581 10583 10585 10586 10586 10585 10585 10585 10585 10585 10584 10582 10581 10581 10579 10578 10579 10578 10576 10572 10570 10571 10571 10570 10569 10568 10567 10565 10564 10562 10560 10558 10555 10553 10550 10547 10543 10540 10536 10533 10530 10527 10524 10521 10517 10513 10509 10505 10500 10495 10489 10483 10477 10471 10464 10457 10450 10443 10438 10433 10428 10424 10419 10413 10407
10515 10518 10521 10525 10528 10533 10538 10542 10546 10549 10552 10555 10558 10561 10565 10567 10568 10569 10570 10572 10574 10577 10578 10579 10579 10579 10579 10580 10580 10580 10580 10578 10578 10578 10576 10576 10576 10574 10572 10569 10567 10566 10566 10565 10564 10563 10563 10561 10560 10558 10556 10553 10551 10549 10546 10542 10539 10535 10532 10529 10526 10522 10519 10516 10512 10508 10504 10500 10495 10490 10485 10479 10473 10467 10460 10453 10446 10439 10434 10429 10424 10420 10415 10410 10404
10508 10512 10515 10519 10523 10528 10533 10537 10540 10544 10547 10549 10553 10555 10557 10559 10562 10563 10564 10565 10568 10571 10572 10572 10573 10573 10575 10575 10575 10576 10575 10574 10574 10573 10572 10572 10572 10570 10568 10566 10564 10563 10563 10562 10561 10559 10558 10557 10556 10553 10551 10549 10546 10544 10541 10538 10534 10531 10527 10524 10520 10517 10514 10511 10507 10503 10499 10494 10490 10485 10480 10475 10469 10463 10456 10449 10442 10436 10430 10425 10421 10416 10411 10406 10401
10501 10506 10510 10514 10518 10523 10528 10531 10534 10537 10540 10542 10545 10547 10549 10553 10556 10557 10558 10559 10562 10564 10565 10566 10568 10568 10570 10571 10571 10571 10571 10570 10569 10567 10566 10566 10566 10566 10565 10563 10560 10558 10558 10557 10556 10554 10553 10552 10550 10548 10546 10544 10541 10538 10535 10533 10529 10526 10522 10518 10515 10512 10508 10505 10502 10498 10494 10490 10485 10480 10476 10470 10464 10458 10452 10445 10439 10432 10426 10421 10417 10412 10407 10402 10397
10495 10500 10504 10508 10512 10517 10520 10524 10527 10530 10532 10535 10537 10540 10543 10547 10550 10551 10551 10553 10556 10558 10559 10560 10562 10562 10563 10564 10566 10565 10565 10566 10564 10561 10560 10560 10559 10559 10559 10558 10556 10554 10552 10551 10550 10548 10547 10545 10543 10542 10540 10538 10535 10532 10530 10527 10524 10520 10517 10513 10510 10506 10503 10500 10497 10493 10489 10484 10480 10475 10470 10465 10459 10454 10447 10441 10434 10428 10422 10416 10412 10408 10403 10398 10393
10488 10493 10497 10501 10505 10509 10513 10517 10521 10524 10526 10528 10531 10534 10537 10540 10543 10544 10545 10547 10550 10553 10554 10554 10555 10556 10556 10557 10558 10558 10558 10559 10558 10556 10554 10553 10552 10551 10550 10550 10550 10548 10547 10545 10543 10541 10540 10539 10537 10536 10535 10532 10529 10526 10524 10521 10518 10515 10511 10508 10505 10501 10497 10494 10491 10487 10483 10479 10474 10470 10465 10459 10454 10449 10443 10436 10430 10424 10418 10413 10408 10404 10399 10395 10389
10479 10485 10490 10494 10499 10503 10507 10511 10515 10517 10518 10520 10524 10527 10531 10533 10536 10538 10540 10542 10545 10547 10548 10547 10548 10549 10549 10550 10550 10550 10550 10551 10550 10549 10548 10547 10546 10545 10545 10544 10544 10542 10541 10539 10537 10535 10533 10533 10531 10530 10528 10525 10522 10520 10517 10515 10512 10509 10506 10503 10499 10496 10492 10488 10484 10481 10477 10473 10469 10464 10459 10454 10448 10443 10438 10432 10426 10420 10414 10409 10404 10399 10395 10390 10385
10473 10478 10483 10488 10492 10496 10499 10503 10506 10509 10511 10514 10518 10521 10524 10526 10529 10532 10535 10537 10539 10541 10542 10541 10541 10541 10542 10542 10543 10543 10543 10543 10542 10542 10541 10538 10537 10539 10540 10540 10538 10536 10534 10532 10530 10528 10527 10526 10524 10522 10520 10518 10515 10513 10511 10509 10506 10503 10499 10496 10493 10490 10486 10482 10479 10475 10471 10467 10463 10458 10454 10449 10444 10438 10433 10427 10421 10416 10410 10405 10400 10395 10391 10386 10382
10467 10472 10477 10482 10487 10490 10493 10496 10499 10502 10505 10508 10512 10515 10517 10519 10522 10525 10528 10532 10536 10538 10536 10534 10534 10533 10534 10535 10536 10536 10536 10535 10535 10534 10532 10528 10527 10531 10534 10532 10530 10528 10527 10524 10523 10522 10520 10519 10517 10515 10513 10511 10509 10507 10505 10502 10499 10496 10493 10490 10487 10484 10480 10476 10472 10468 10464 10460 10456 10451 10447 10443 10438 10434 10429 10423 10417 10411 10406 10400 10395 10391 10386 10382 10378
10461 10466 10471 10477 10482 10485 10488 10490 10493 10497 10500 10502 10505 10508 10510 10513 10516 10518 10522 10528 10533 10533 10530 10528 10527 10527 10528 10529 10530 10529 10528 10527 10527 10525 10523 10522 10522 10523 10523 10523 10521 10520 10518 10517 10516 10515 10513 10512 10510 10508 10506 10505 10503 10501 10498 10495 10493 10490 10487 10484 10481 10477 10474 10470 10466 10462 10457 10453 10449 10444 10440 10436 10432 10428 10424 10419 10413 10407 10401 10396 10391 10386 10381 10377 10373
10456 10460 10466 10471 10476 10479 10481 10484 10487 10490 10493 10495 10498 10501 10504 10507 10509 10512 10516 10521 10525 10524 10523 10522 10521 10522 10523 10524 10523 10521 10519 10518 10519 10519 10518 10517 10516 10516 10516 10515 10513 10511 10510 10510 10509 10507 10506 10504 10503 10501 10500 10498 10496 10494 10492 10489 10486 10483 10481 10477 10474 10470 10467 10463 10459 10455 10451 10447 10442 10438 10435 10431 10427 10422 10418 10413 10407 10402 10396 10391 10386 10381 10377 10373 10369
10449 10454 10459 10464 10468 10472 10474 10477 10480 10483 10485 10487 10490 10494 10497 10500 10503 10505 10509 10512 10514 10515 10515 10515 10515 10516 10518 10518 10517 10514 10509 10507 10510 10513 10513 10512 10511 10511 10510 10508 10506 10505 10504 10503 10501 10499 10498 10497 10496 10494 10493 10491 10488 10486 10485 10482 10479 10476 10473 10470 10467 10463 10460 10457 10453 10449 10445 10441 10436 10433 10429 10425 10421 10417 10412 10407 10402 10397 10391 10386 10381 10377 10372 10368 10364
10441 10446 10451 10455 10460 10463 10467 10470 10473 10475 10478 10480 10483 10487 10490 10492 10495 10498 10501 10503 10504 10506 10507 10507 10508 10509 10511 10511 10508 10506 10503 10501 10502 10505 10507 10507 10506 10505 10503 10502 10500 10500 10499 10496 10494 10492 10491 10490 10489 10487 10486 10484 10481 10478 10477 10475 10472 10469 10467 10464 10460 10457 10453 10450 10446 10442 10438 10434 10431 10427 10424 10420 10416 10411 10406 10402 10397 10391 10386 10381 10376 10372 10367 10363 10359
10435 10439 10443 10448 10452 10456 10460 10463 10466 10468 10471 10474 10476 10479 10482 10484 10487 10491 10493 10495 10496 10497 10497 10497 10500 10503 10503 10502 10499 10498 10497 10496 10496 10497 10498 10499 10499 10497 10496 10495 10494 10493 10491 10489 10487 10486 10485 10484 10482 10480 10479 10477 10474 10471 10469 10467 10465 10462 10460 10457 10454 10451 10447 10443 10440 10436 10432 10428 10424 10421 10418 10414 10410 10405 10401 10396 10391 10386 10381 10376 10371 10366 10362 10358 10354
10429 10433 10437 10441 10446 10450 10453 10456 10458 10460 10463 10466 10468 10471 10474 10477 10480 10483 10485 10486 10488 10488 10487 10488 10492 10496 10495 10492 10492 10493 10493 10491 10490 10490 10491 10491 10490 10490 10489 10488 10487 10485 10483 10481 10480 10479 10478 10476 10475 10473 10471 10469 10467 10464 10462 10459 10457 10455 10453 10450 10448 10445 10441 10437 10433 10430 10426 10422 10418 10415 10412 10408 10404 10399 10395 10390 10386 10381 10375 10371 10366 10361 10356 10352 10349
10423 10427 10431 10435 10439 10442 10445 10447 10449 10452 10455 10457 10460 10464 10467 10470 10473 10474 10476 10478 10479 10479 10479 10481 10484 10486 10486 10485 10486 10487 10486 10484 10484 10484 10484 10483 10482 10482 10481 10480 10478 10476 10474 10474 10473 10472 10470 10469 10467 10465 10463 10461 10459 10457 10454 10452 10450 10448 10445 10443 10440 10438 10435 10431 10427 10423 10420 10416 10412 10409 10405 10401 10397 10393 10388 10384 10380 10375 10370 10365 10360 10355 10351 10346 10343
10417 10421 10425 10429 10432 10435 10438 10440 10442 10444 10447 10451 10454 10458 10460 10462 10464 10466 10468 10469 10471 10471 10472 10474 10476 10476 10477 10478 10479 10479 10478 10478 10477 10477 10476 10475 10474 10474 10473 10471 10467 10466 10467 10467 10465 10464 10462 10460 10458 10457 10455 10453 10451 10449 10447 10445 10443 10441 10439 10436 10433 10430 10427 10424 10421 10417 10413 10410 10406 10402 10398 10394 10390 10385 10381 10377 10373 10368 10363 10358 10353 10349 10344 10340 10337
10412 10416 10419 10422 10425 10429 10432 10434 10436 10439 10441 10444 10448 10451 10453 10454 10456 10459 10460 10462 10463 10465 10467 10468 10468 10468 10469 10470 10470 10470 10471 10471 10470 10468 10467 10467 10466 10466 10466 10463 10459 10458 10459 10460 10457 10455 10454 10451 10450 10448 10447 10445 10443 10441 10439 10437 10435 10434 10431 10429 10426 10423 10420 10417 10413 10410 10406 10403 10399 10395 10391 10387 10382 10378 10374 10370 10365 10361 10356 10351 10346 10342 10338 10334 10331
10405 10409 10412 10415 10419 10422 10425 10427 10430 10434 10436 10438 10440 10444 10447 10448 10450 10451 10453 10455 10458 10459 10461 10461 10461 10460 10460 10462 10462 10463 10463 10463 10461 10459 10458 10459 10459 10459 10458 10456 10452 10451 10451 10450 10449 10447 10444 10442 10441 10440 10438 10437 10435 10433 10430 10429 10427 10426 10424 10421 10418 10415 10412 10409 10405 10402 10399 10395 10392 10388 10383 10379 10375 10371 10366 10362 10358 10353 10349 10344 10340 10335 10332 10328 10325
10398 10402 10405 10409 10412 10416 10418 10420 10424 10427 10430 10432 10434 10437 10440 10443 10444 10444 10446 10450 10452 10452 10453 10454 10453 10452 10452 10453 10454 10455 10455 10455 10452 10450 10449 10450 10450 10450 10449 10447 10446 10445 10443 10441 10440 10438 10436 10434 10433 10431 10430 10430 10428 10424 10422 10420 10419 10417 10416 10413 10410 10407 10404 10401 10398 10395 10391 10388 10384 10380 10376 10372 10368 10363 10359 10355 10351 10346 10342 10338 10333 10329 10325 10322 10319
10390 10394 10398 10402 10406 10410 10412 10415 10419 10421 10423 10424 10427 10429 10432 10434 10436 10436 10439 10442 10444 10444 10445 10446 10445 10444 10444 10446 10447 10448 10449 10448 10445 10442 10441 10441 10441 10441 10440 10438 10438 10436 10434 10433 10431 10430 10428 10427 10424 10422 10422 10422 10420 10416 10414 10412 10411 10409 10407 10404 10402 10399 10396 10393 10390 10387 10383 10380 10376 10372 10368 10364 10360 10356 10352 10348 10344 10340 10336 10332 10327 10323 10319 10316 10313
10382 10386 10390 10394 10400 10404 10406 10409 10413 10417 10417 10417 10419 10421 10422 10425 10427 10428 10430 10433 10435 10436 10437 10437 10437 10436 10438 10439 10440 10441 10441 10440 10437 10435 10433 10432 10431 10431 10430 10429 10428 10427 10425 10424 10423 10422 10420 10419 10417 10414 10413 10412 10411 10409 10406 10404 10402 10400 10398 10395 10393 10391 10388 10385 10382 10379 10376 10372 10368 10364 10360 10356 10352 10348 10344 10340 10336 10333 10329 10325 10321 10317 10314 10311 10308
10376 10379 10381 10385 10391 10396 10399 10401 10406 10411 10413 10412 10412 10413 10415 10417 10419 10420 10422 10424 10425 10427 10428 10429 10429 10429 10429 10429 10430 10431 10431 10430 10428 10426 10425 10423 10422 10421 10420 10419 10418 10417 10416 10416 10415 10413 10411 10410 10409 10407 10405 10403 10403 10401 10399 10396 10393 10391 10388 10386 10384 10382 10379 10376 10374 10371 10368 10364 10360 10355 10351 10347 10343 10340 10336 10332 10329 10325 10322 10319 10315 10311 10308 10305 10302
10369 10371 10374 10376 10380 10385 10390 10392 10396 10402 10406 10407 10407 10407 10408 10409 10411 10412 10413 10414 10416 10417 10418 10419 10419 10419 10419 10419 10419 10419 10419 10419 10419 10417 10416 10415 10414 10412 10411 10410 10409 10408 10408 10407 10405 10404 10402 10401 10400 10399 10397 10396 10394 10393 10391 10388 10386 10383 10380 10378 10376 10373 10371 10368 10366 10363 10359 10356 10351 10347 10343 10339 10335 10331 10328 10324 10321 10318 10315 10311 10308 10304 10301 10298 10295
10361 10363 10366 10368 10371 10374 10379 10382 10386 10391 10395 10397 10399 10400 10401 10402 10403 10404 10404 10405 10406 10407 10407 10408 10408 10409 10409 10409 10409 10409 10409 10409 10408 10407 10407 10406 10405 10403 10402 10401 10400 10399 10398 10397 10396 10394 10393 10392 10390 10389 10388 10387 10385 10383 10381 10379 10377 10375 10372 10370 10368 10365 10362 10360 10357 10354 10350 10346 10341 10337 10334 10330 10326 10323 10319 10316 10313 10310 10307 10303 10300 10297 10294 10291 10288